Regional Weather Roundup
Issued by NWS

Home | Current Version | Previous Version | Graphics & Text | Print | Product List | Glossary On
Versions: 1 2 3 4 5 6 7 8 9 10 11 12 13 14 15 16 17 18 19 20 21 22 23 24 25 26 27 28 29 30 31 32 33 34 35 36 37 38 39 40 41 42 43 44 45 46 47 48 49 50
000
ASUS43 KDTX 291101
RWRMI
MICHIGAN HOURLY REGIONAL WEATHER ROUNDUP
NATIONAL WEATHER SERVICE DETROIT/PONTIAC MI
700 AM EDT SAT AUG 29 2015

NOTE: "FAIR" INDICATES FEW OR NO CLOUDS BELOW 12,000 FEET WITH NO
SIGNIFICANT WEATHER AND/OR OBSTRUCTION TO VISIBILITY.

MIZ047>049-052>055-059>063-066>070-074>076-081>083-291200-
SOUTHEAST LOWER MICHIGAN

CITY           SKY/WX    TMP DP  RH WIND       PRES   REMARKS
ADRIAN         CLOUDY    59  57  93 CALM      30.13S
ALMA           CLOUDY    60  59  97 CALM      30.13S
ANN ARBOR      CLOUDY    60  59  96 CALM      30.13R
BAD AXE        CLOUDY    61  60  95 CALM      30.15S FOG
CARO           RAIN      61  60  96 NE3       30.14S
DETROIT CITY   CLOUDY    64  61  90 SE3       30.13S
DETROIT        CLOUDY    65  62  90 CALM      30.13S
FLINT          CLOUDY    65  61  87 E5        30.14R FOG
GROSSE ILE     CLOUDY    64  63  94 CALM      30.12S
HILLSDALE      CLOUDY    62  61  96 SE5       30.12S
HOWELL         CLOUDY    62  61  97 CALM      30.13R FOG

CITY           SKY/WX    TMP DP  RH WIND       PRES   REMARKS
JACKSON        CLOUDY    60  58  92 SE5       30.13R
LAMBERTVILLE   CLOUDY    61  58  89 CALM      30.13S
LANSING        CLOUDY    62  60  93 E5        30.13R
LAPEER         FAIR      60  60 100 CALM      30.15R FOG
MASON          CLOUDY    61  57  88 CALM      30.12S
MONROE         CLOUDY    61  59  94 CALM      30.12S
MT. CLEMENS    CLOUDY    62  61  95 CALM      30.12R
PONTIAC        CLOUDY    62  61  96 CALM      30.13R FOG
PORT HOPE        N/A     64  60  87 VRB6      30.12S
PORT HURON     CLOUDY    59  59 100 CALM      30.14S FOG
TRI CITIES     LGT RAIN  63  59  87 N6        30.15R
MIDLAND        DRIZZLE   61  59  93 N3        30.14R
TROY           CLOUDY    64  63  94 CALM      30.15R
SAGINAW HB     LGT RAIN  61  61 100 N3        30.14R
$$
MIZ043>046-050>051-056>058-064>065-071>073-077>080-291200-
SOUTHWEST LOWER MICHIGAN

CITY           SKY/WX    TMP DP  RH WIND       PRES   REMARKS
BATTLE CREEK   CLOUDY    65  58  78 CALM      30.11S
BENTON HARBOR  LGT RAIN  64  59  83 SE6       30.07R
BIG RAPIDS     DRIZZLE   58  57  96 CALM      30.11S
COLDWATER      CLOUDY    61  59  94 SE5       30.11S
FREMONT        RAIN      59  59  99 CALM      30.10R
HOLLAND        LGT RAIN  63  61  93 E8        30.09S
GRAND RAPIDS   CLOUDY    62  60  93 E6        30.11S
IONIA          MOCLDY    61  61  99 E3        30.12R
KALAMAZOO      CLOUDY    64  58  80 CALM      30.11R
LUDINGTON      DRIZZLE   61  58  92 E3        30.12R
MARSHALL       CLOUDY    61  58  91 CALM      30.11S
MOUNT PLEASANT LGT RAIN  62  60  93 NE3       30.12F
MUSKEGON       LGT RAIN  61  57  87 E7        30.09S
SOUTH HAVEN    LGT RAIN  64  60  87 SE5       30.07S
$$
MIZ016>042-291200-
NORTHERN LOWER MICHIGAN

CITY           SKY/WX    TMP DP  RH WIND       PRES   REMARKS
ALPENA         LGT RAIN  61  60  97 SW6       30.13R
BEAVER ISLAND  CLOUDY    63  58  84 SW9       30.09S
BELLAIRE       DRIZZLE   61  59  93 CALM      30.13S
CADILLAC       LGT RAIN  58  58  97 NE5       30.12F
CHARLEVOIX     CLOUDY    61  59  95 SW8       30.14S
FRANKFORT      LGT RAIN  59  58  97 CALM      30.11F
GAYLORD        LGT RAIN  60  60 100 SW8       30.14R FOG
GRAYLING       DRIZZLE   58  57  96 S8        30.16S
HARBOR SPRINGS CLOUDY    62  59  92 SW10G16   30.12R
HOUGHTON LAKE  RAIN      58  53  84 SW3       30.16S
MANISTEE       CLOUDY    59  55  88 E3        30.11F
OSCODA         CLOUDY    61  59  92 CALM      30.13R
PELLSTON       CLOUDY    63  59  87 SW8       30.11R
ROGERS CITY    LGT RAIN  62  60  91 W8        30.12R
TRAVERSE CITY  LGT RAIN  61  59  93 CALM      30.12S
$$
MIZ007>008-015-291200-
EASTERN UPPER MICHIGAN

CITY           SKY/WX    TMP DP  RH WIND       PRES   REMARKS
KINROSS        CLOUDY    63  63 100 SW7       30.07R
MACKINAC ISLAN CLOUDY    63  59  87 W9G24     30.09R
NEWBERRY       CLOUDY    62  60  92 SW12      30.05R
S. S. MARIE    CLOUDY    64  61  90 SW7       30.04S
$$
MIZ004>006-011>014-085-291200-
CENTRAL UPPER MICHIGAN

CITY           SKY/WX    TMP DP  RH WIND       PRES   REMARKS
MANISTIQUE     MOCLDY    60  56  87 SW8       30.06F
ESCANABA       CLOUDY    59  54  82 SW7       30.05F
MENOMINEE      CLOUDY    57  54  88 N6        30.09S
SAWYER-GWINN   CLEAR     61  55  82 SW9       30.02F
$$
MIZ001>003-009>011-084-291200-
WESTERN UPPER MICHIGAN

CITY           SKY/WX    TMP DP  RH WIND       PRES   REMARKS
IRON MOUNTAIN  PTCLDY    57  54  89 CALM      30.05F
HOUGHTON       CLOUDY    60  56  86 W12       29.98R
COPPER HARBOR    N/A     61  58  90 NW9       29.98R
IRONWOOD       MOCLDY    57  55  94 S10       29.98F
$$

ABBREVIATIONS USED IN REMARKS
   TC - TEMPERATURE IN CELSIUS
  WCI - WIND CHILL INDEX
   HX - HEAT INDEX
  VSB - VISIBILITY




USA.gov is the U.S. government's official web portal to all federal, state and local government web resources and services.